FW5230 Weather Reports


time (UTC)temp
F
wind
direction
speed
knots
gust
knots
rain 1hr
in
rain 24hr
in
rain mn
in
humidity
%
barometer
mb
20260507134534 52 311 1.7 4.3 0.00 0.88 0.17 79 1004.8
20260507133050 51 234 1.7 5.2 0.00 0.88 0.17 78 1005.0
20260507131529 51 280 0.0 3.5 0.00 0.88 0.17 83 1004.9
20260507130034 50 275 2.6 5.2 0.00 0.88 0.17 83 1004.9
20260507124529 51 296 2.6 5.2 0.00 0.88 0.17 84 1005.1
20260507123035 50 295 1.7 5.2 0.00 0.88 0.17 86 1005.3
20260507121526 49 308 3.5 6.1 0.00 0.88 0.17 86 1005.3
20260507120024 48 265 0.9 3.5 0.00 0.88 0.17 90 1005.2
20260507114524 47 210 1.7 4.3 0.00 0.88 0.17 90 1005.6
20260507113023 47 254 1.7 5.2 0.00 0.88 0.17 92 1005.2
20260507111520 46 303 3.5 7.0 0.00 0.88 0.17 91 1005.1
20260507110020 46 328 2.6 6.1 0.00 0.88 0.17 92 1005.3
20260507104517 45 275 3.5 7.0 0.00 0.88 0.17 95 1004.9
20260507103016 44 284 2.6 6.1 0.00 0.88 0.17 96 1004.8
20260507101515 44 294 1.7 4.3 0.00 0.88 0.17 96 1004.7
20260507100020 44 342 0.0 2.6 0.00 0.88 0.17 97 1004.7
20260507094512 45 269 0.9 2.6 0.00 0.88 0.17 97 1004.9
20260507093012 45 302 0.9 3.5 0.00 0.88 0.17 97 1005.1
20260507091511 45 287 0.0 1.7 0.00 0.88 0.17 96 1004.2
20260507090011 45 279 1.7 2.6 0.00 0.88 0.17 96 1004.6
20260507084506 46 284 1.7 4.3 0.00 0.88 0.17 96 1004.3
20260507083005 46 292 1.7 3.5 0.00 0.88 0.17 96 1004.3
20260507081503 46 298 1.7 3.5 0.00 0.88 0.17 97 1004.2
20260507080001 47 276 1.7 5.2 0.01 0.88 0.17 97 1004.3
20260507074601 47 311 3.5 6.1 0.01 0.88 0.17 98 1004.2
20260507073107 48 278 1.7 3.5 0.02 0.88 0.17 98 1004.0
20260507071555 48 307 1.7 3.5 0.03 0.88 0.17 98 1003.9
20260507070101 48 312 0.9 2.6 0.06 0.87 0.16 98 1003.8
20260507064556 48 351 0.9 3.5 0.11 0.87 0.16 98 1003.5
20260507063051 49 294 0.0 3.5 0.10 0.86 0.15 98 1003.4
20260507061550 49 345 0.0 3.5 0.09 0.84 0.13 98 1003.4
20260507060055 49 321 1.7 6.1 0.06 0.80 0.09 97 1003.7
20260507054545 50 285 1.7 5.2 0.03 0.76 0.05 98 1003.5
20260507053045 50 300 0.9 2.6 0.03 0.76 0.05 97 1002.9
20260507051543 50 272 1.7 9.6 0.03 0.75 0.04 97 1003.2
20260507050040 51 271 4.3 8.7 0.03 0.74 0.03 98 1003.4
20260507044548 51 296 4.3 7.8 0.02 0.73 0.02 98 1003.2
20260507043032 52 309 1.7 7.0 0.03 0.73 0.02 98 1002.8
20260507041530 52 209 2.6 6.1 0.03 0.72 0.01 98 1002.6
20260507040028 53 246 1.7 9.6 0.02 0.71 0.00 98 1002.6
20260507034530 53 209 1.7 6.1 0.02 0.71 0.71 98 1002.6
20260507033036 53 203 3.5 7.8 0.01 0.70 0.70 98 1002.7
20260507031543 53 240 3.5 10.4 0.00 0.69 0.69 98 1002.7
20260507030025 53 230 0.9 7.0 0.00 0.69 0.69 98 1002.3
20260507024524 53 224 1.7 8.7 0.01 0.69 0.69 98 1002.7
20260507023021 54 225 1.7 6.1 0.02 0.69 0.69 98 1003.0
20260507021519 54 215 0.9 11.3 0.02 0.69 0.69 98 1003.2
20260507020022 54 276 1.7 7.0 0.02 0.69 0.69 98 1003.5
20260507014520 54 284 1.7 7.0 0.01 0.68 0.68 98 1003.7
20260507013016 54 170 2.6 7.0 0.00 0.67 0.67 98 1004.2
20260507011525 53 355 1.7 5.2 0.00 0.67 0.67 98 1004.5
20260507010009 53 233 1.7 6.1 0.00 0.67 0.67 98 1004.7
20260507004508 53 293 1.7 5.2 0.03 0.67 0.67 98 1005.0
20260507003007 53 292 1.7 5.2 0.04 0.67 0.67 98 1005.1
20260507001506 53 192 1.7 8.7 0.12 0.67 0.67 97 1005.2
20260507000005 53 271 3.5 8.7 0.27 0.67 0.67 97 1005.3
20260506234505 54 221 0.9 7.0 0.28 0.64 0.64 98 1005.3
20260506233004 54 187 2.6 5.2 0.30 0.63 0.63 97 1005.4
20260506231503 54 18 0.9 6.1 0.23 0.54 0.54 97 1005.4
20260506230001 54 123 1.7 5.2 0.12 0.39 0.39 97 1005.4
20260506224607 54 65 1.7 7.0 0.11 0.36 0.36 97 1005.3
20260506223100 54 240 1.7 8.7 0.13 0.33 0.33 97 1005.5
20260506221559 54 207 1.7 4.3 0.15 0.31 0.31 97 1006.0
20260506220101 54 151 0.9 6.1 0.14 0.27 0.27 97 1005.9
20260506214558 54 49 0.0 4.3 0.14 0.24 0.24 97 1005.8
20260506213058 54 165 1.7 6.1 0.13 0.20 0.20 96 1006.4
20260506211556 54 294 1.7 5.2 0.12 0.16 0.16 96 1006.3
20260506210055 54 86 1.7 7.8 0.10 0.12 0.12 95 1006.1
20260506204555 55 255 0.9 12.2 0.09 0.10 0.10 95 1006.4
20260506203054 55 63 2.6 8.7 0.07 0.07 0.07 94 1006.0
20260506201556 56 157 0.9 8.7 0.04 0.04 0.04 93 1006.4
20260506200051 56 132 2.6 7.8 0.02 0.02 0.02 91 1006.0
20260506194550 57 138 1.7 7.0 0.01 0.01 0.01 89 1006.2
20260506193049 58 92 1.7 5.2 0.00 0.00 0.00 85 1006.7
20260506191550 59 213 2.6 8.7 0.00 0.00 0.00 83 1006.6
20260506190052 60 119 2.6 7.8 0.00 0.00 0.00 84 1006.8
20260506184551 60 219 1.7 7.8 0.00 0.00 0.00 83 1006.7
20260506183049 60 123 2.6 6.1 0.00 0.00 0.00 82 1006.8
20260506181545 61 261 1.7 7.0 0.00 0.00 0.00 81 1006.8
20260506180046 61 184 0.9 8.7 0.00 0.00 0.00 82 1006.9
20260506174544 60 300 2.6 7.0 0.00 0.00 0.00 83 1007.3
20260506173120 60 223 0.9 7.0 0.00 0.00 0.00 83 1007.7
20260506171543 60 216 0.9 6.1 0.00 0.00 0.00 84 1007.8
20260506170044 60 306 0.9 10.4 0.00 0.00 0.00 85 1007.9
20260506164544 60 355 1.7 8.7 0.00 0.00 0.00 83 1008.1
20260506163043 60 355 2.6 8.7 0.00 0.00 0.00 82 1008.2
20260506161542 61 106 2.6 7.8 0.00 0.00 0.00 82 1008.3
20260506160040 61 250 0.9 6.1 0.00 0.00 0.00 81 1008.3
20260506154545 62 88 1.7 7.8 0.00 0.00 0.00 79 1008.1
20260506153045 62 217 1.7 3.5 0.00 0.00 0.00 79 1007.9
20260506151538 62 148 2.6 6.1 0.00 0.00 0.00 79 1008.0
20260506150036 61 131 0.9 5.2 0.00 0.00 0.00 79 1008.3
20260506144538 60 80 0.9 4.3 0.00 0.00 0.00 80 1008.8
20260506143036 60 190 2.6 6.1 0.00 0.00 0.00 80 1009.2
20260506141532 59 106 0.9 4.3 0.00 0.00 0.00 80 1009.1
20260506140029 59 71 0.9 3.5 0.00 0.00 0.00 80 1009.1